www.pogodaiklimat.ru

Погода и климат >> Архив погоды >> Аргентина >> Чамикаль


ПОГОДА в Чамикале

  • Прогноз погоды в Чамикале
  • Монитор погоды в Чамикале

АРХИВ ПОГОДЫ в Чамикале

Время (UTC), дата Ветер
(напр.,м/с)
 
Видим.   Явления Облачность Т
(С)
Тd
(С)
f
(%)
Тe
(С)
Тes
(С)
Комфортность P
(гПа)
Po
(гПа)
Тmin
(С)
Tmax
(С)
R
(мм)
R24
(мм)
S
(см)
12 9.09 штиль 0 20 км 4/0
[Ac und]
+14.5 +10.8 78 +14 +16 1008.4 955.8 +9.2 +19.6 0.0
15 9.09 ЮВ 1 20 км 5/0
[Ci]
+22.0 +8.4 42 +23 +37 комфорт 956.4
18 9.09 З 5 30 км 3/3 1200 м
[Cu hum]
+26.6 -1.1 16 +24 +29 комфорт 954.3
21 9.09 ЮВ 17 20 км 8/3 1200 м
[Sc Cs]
+21.0 +5.9 37 +21 +21 комфорт 1008.3 955.3
00 10.09 ЮВ 17 20 км 10/0
[Cs]
+17.9 +6.0 46 +16 +16 1012.3 959.6 +14.5 +27.1
09 10.09 штиль 0 20 км 10/10 750 м
[Sc]
+10.1 +9.7 97 +9 +9 1017.2 963.9
12 10.09 штиль 0 20 км 10/3 750 м
[Sc Ac und]
+10.1 +9.1 94 +9 +10 1018.8 965.5 +9.4 +18.0 40
15 10.09 штиль 0 20 км 10/10 750 м
[Sc]
+11.4 +9.0 85 +11 +11 965.6
18 10.09 штиль 0 20 км 10/4 750 м
[Sc Ac und]
+12.8 +8.1 73 +12 +16 962.8
21 10.09 штиль 0 20 км 10/0
[Ac und]
+13.1 +7.8 70 +13 +13 1016.7 962.6
00 11.09 штиль 0 10 км слаб. морось 10/10 600 м
[Frnb]
+11.4 +9.7 89 +11 +11 1018.4 964.7 +9.6 +13.5 0.0
09 11.09 штиль 0 20 км 10/10 900 м
[Frnb]
+11.4 +9.9 90 +11 +11 1011.4 963.1
12 11.09 штиль 0 15 км слаб. дождь 9/5 900 м
[Frnb As op]
+11.0 +9.9 93 +10 +11 1018.6 964.2 +10.4 +11.6 0.0
15 11.09 ЮВ 3 20 км 8/8 1200 м
[Sc]
+12.4 +9.3 81 +11 +13 966.6
18 11.09 ЮВ 5 20 км {дождь} 6/6 1200 м
[Cu hum]
+17.2 +7.1 51 +17 +20 964.8
21 11.09 ЮВ 6 20 км 4/4 1200 м
[Cu hum]
+16.8 +5.0 46 +16 +16 1018.2 964.8
00 12.09 ЮВ 4 20 км ясно +11.8 +5.5 65 +10 +10 1020.6 967.1 +10.6 +17.8
09 12.09 штиль 0 20 км ясно +3.5 +0.6 81 +3 +3 1023.0 968.4
12 12.09 штиль 0 20 км ясно +9.9 +4.5 69 +9 +13 1024.4 969.9 +1.5 +12.5
15 12.09 СВ 3 20 км ясно +17.0 +5.1 45 +17 +28 969.6
18 12.09 штиль 0 20 км ясно +21.9 -2.9 19 +21 +39 комфорт 966.0
21 12.09 СВ 5 20 км ясно +21.0 -3.3 19 +21 +22 комфорт 1017.2 963.5
00 13.09 штиль 0 20 км ясно +15.9 -2.3 29 +16 +16 1018.3 964.6 +9.5 +22.7
09 13.09 ЮВ 2 20 км 4/0
[Ci]
+9.8 +0.1 51 +9 +9 1018.6 965.2
12 13.09 В 1 20 км 1/0
[Ci fib]
+12.8 +2.3 49 +13 +16 1019.6 966.3 +8.0 +16.0
15 13.09 В 4 20 км ясно +18.8 +3.8 37 +19 +28 964.8
18 13.09 В 10 20 км ясно +21.4 +2.7 29 +21 +22 комфорт 961.2
21 13.09 В 9 20 км ясно +21.1 +2.9 30 +21 +21 комфорт 1012.6 959.5
00 14.09 ЮВ 2 20 км ясно +15.9 +2.3 40 +16 +16 1015.1 961.8 +12.8 +22.0
09 14.09 штиль 0 20 км ясно +11.4 +7.4 76 +11 +11 1010.7 958.0
12 14.09 ЮВ 2 20 км ясно +13.8 +6.0 59 +14 +16 1012.2 959.1 +10.0 +16.0
15 14.09 ЮВ 3 20 км ясно +19.0 +1.4 31 +19 +31 опасность
простуды
957.8
18 14.09 ЮВ 2 20 км ясно +23.4 +2.1 25 +23 +37 комфорт 954.6
21 14.09 штиль 0 20 км ясно +24.8 +3.4 25 +24 +27 комфорт 1005.0 952.7
00 15.09 штиль 0 20 км ясно +19.8 +5.7 40 +20 +20 1004.5 952.2 +13.6 +25.8
09 15.09 штиль 0 20 км ясно +14.5 +8.5 67 +14 +14 1002.8 951.0
12 15.09 штиль 0 20 км ясно +19.0 +9.9 56 +20 +23 1004.0 952.3 +12.5 +19.9
15 15.09 В 3 20 км ясно +25.9 +8.7 34 +26 +38 жарко 950.9
18 15.09 В 5 20 км ясно +31.2 +7.9 23 +30 +37 жарко 949.0
21 15.09 В 5 20 км ясно +31.4 +7.5 23 +30 +31 жарко 998.6 947.7
00 16.09 штиль 0 20 км ясно +32.5 +18.6 44 +37 +37 очень
душно
1001.2 950.1

 

Местоположение метеостанции Чамикаль (Аргентина): широта -30.36 долгота -66.28 высота над уровнем моря 461 м.

В архиве по умолчанию представлена погода в Чамикале за последнюю неделю. Архивные данные за месяц целиком и за предыдущие месяцы, начиная с января 2011 года, Вы можете получить, выбрав интересующий диапазон дат из раскрывающегося списка и нажав кнопку "Ввод!".


*Определитесь, кто Вы:
робот инопланетянин человек

Внимание! Время в таблицах - всемирное. Для получения местного времени необходимо прибавить поправку, которая равна -3 ч.

Смотрите также архив погоды в соседних городах и на ближайших метеорологических станциях:

Погода в Ла-Риохе (Аргентина) (120 км)
Погода в Сан-Фернандо-дель-Валье-де-Катамарке (Аргентина) (202 км)
Погода в Вилла Долорес (Аргентина) (208 км)
Погода в Кордове (Аргентина) (224 км)
Погода в Сан-Хуане (Аргентина) (234 км)
Погода в Вилла де Мария дель Рио Секо (Аргентина) (255 км)
Погода в Пиларе (Аргентина) (271 км)
Погода в Сан-Луисе (Аргентина) (323 км)
Погода в Сантьяго-дель-Эстеро (Аргентина) (347 км)
Погода в Рио-Куарто (Аргентина) (358 км)

Пояснения к столбцам:

Ветер - указаны скорость ветра в м/с - средняя за 10 мин, порывы в срок и между сроками (в фигурных скобках) и направление, откуда дует ветер: С - северный, СВ - северо-восточный, В - восточный, ЮВ - юго-восточный, Ю - южный, ЮЗ - юго-западный, З - западный, СЗ - северо-западный.
Видимость - горизонтальная дальность видимости в метрах или километрах. При видимости от 1 до 10 км при отсутствии осадков обычно наблюдается дымка, при ухудшении видимости до 1 км и менее - туман. В сухую погоду видимость может ухудшаться дымом, пылью или мглою.
Явления - указаны атмосферные явления, наблюдавшиеся в срок или в последний час перед сроком; фигурными скобками обозначены явления, наблюдавшиеся между сроками (за 1-3 часа до срока); квадратными скобками обозначены град или гололедные отложения с указанием их диаметра в мм.
Облачность - указаны через наклонную черту общая и нижняя облачность в баллах и высота нижней границы облаков в метрах; квадратными скобками обозначены формы облаков: Ci - перистые, Cs - перисто-слоистые, Cc - перисто-кучевые, Ac - высококучевые, As - высокослоистые, Sc - слоисто-кучевые, Ns - слоисто-дождевые, Cu - кучевые, Cb - кучево-дождевые. Подробнее классификацию облаков см. в Атласе облаков (PDF).
T - Температура воздуха - температура, измеренная на высоте 2 м над землей.
Td - Температура точки росы - температура, при понижении до которой содержащийся в воздухе водяной пар достигнет насыщения.
f - Относительная влажность воздуха - влажноcть воздуха, измеренная на высоте 2 м над землей.
Te - Эффективная температура - температура, которую ощущает одетый по сезону человек в тени. Характеристика душности погоды. При расчете учитывается влияние влажности воздуха и скорости ветра на теплоощущения человека.
Tes - Эффективная температура на солнце - температура, которую ощущает человек, с поправкой на солнечный нагрев. Характеристика знойности погоды. Зависит от высоты солнца над горизонтом, облачности и скорости ветра. Ночью, в пасмурную погоду, а также при ветре 12 м/с и более поправка равна нулю.
P - Атмосферное давление - приведенное к уровню моря атмосферное давление.
Po - Атмосферное давление - измеренное на уровне метеостанции атмосферное давление.
Tmin - Минимальная температура - минимум температуры воздуха на высоте 2 м над землей.
Tmax - Максимальная температура - максимум температуры воздуха на высоте 2 м над землей.
R - Количество осадков - Количество выпавших осадков за период времени, мм. При наведении курсора мыши на число - период времени, за который выпало указанное количество осадков.
R24 - Количество осадков - Количество выпавших осадков за 24 часа, мм.
S - Снежный покров - Высота снежного покрова, см. При наведении курсора мыши на число - состояние снежного покрова и степень покрытия местности в баллах.